SB KEPS @ AMSAT $ORB09211.O Orbital Elements 09211.OSCAR
HR AMSAT ORBITAL ELEMENTS FOR OSCAR SATELLITES FROM WA5QGD FORT WORTH,TX July 30, 2009 Send Subscribe/unsubscribe to KEPS at http://www.amsat.org/mailman/listinfo/keps BID: ORB09211.O TO ALL RADIO AMATEURS BT
Satellite: AO-07 Catalog number: 07530 Epoch time: 09211.58324359 Element set: 542 Inclination: 101.4245 deg RA of node: 234.6643 deg Eccentricity: 0.0011693 Arg of perigee: 182.8638 deg Mean anomaly: 177.2370 deg Mean motion: 12.53576150 rev/day Decay rate: -2.7e-07 rev/day^2 Epoch rev: 58815 Checksum: 296
Satellite: FO-29 Catalog number: 24278 Epoch time: 09211.70794076 Element set: 98 Inclination: 098.5473 deg RA of node: 079.8837 deg Eccentricity: 0.0350049 Arg of perigee: 237.5178 deg Mean anomaly: 119.1676 deg Mean motion: 13.52943750 rev/day Decay rate: -8.7e-07 rev/day^2 Epoch rev: 63963 Checksum: 360
Satellite: SO-33 Catalog number: 25509 Epoch time: 09210.27301247 Element set: 0509 Inclination: 031.4327 deg RA of node: 174.5116 deg Eccentricity: 0.0354230 Arg of perigee: 346.3839 deg Mean anomaly: 012.7441 deg Mean motion: 14.28258201 rev/day Decay rate: 1.14e-06 rev/day^2 Epoch rev: 56185 Checksum: 270
Satellite: RS-22 Catalog number: 27939 Epoch time: 09211.20854144 Element set: 852 Inclination: 097.9375 deg RA of node: 084.4988 deg Eccentricity: 0.0013703 Arg of perigee: 001.7386 deg Mean anomaly: 358.3869 deg Mean motion: 14.63331467 rev/day Decay rate: -3.4e-07 rev/day^2 Epoch rev: 31186 Checksum: 328
Satellite: VO-52 Catalog number: 28650 Epoch time: 09211.33992324 Element set: 284 Inclination: 097.7393 deg RA of node: 271.4899 deg Eccentricity: 0.0025997 Arg of perigee: 247.5699 deg Mean anomaly: 112.2812 deg Mean motion: 14.81607170 rev/day Decay rate: 3.91e-06 rev/day^2 Epoch rev: 22903 Checksum: 333
/EX SB KEPS @ AMSAT $ORB09211.D Orbital Elements 09211.MICROS
HR AMSAT ORBITAL ELEMENTS FOR THE MICROSATS FROM WA5QGD FORT WORTH,TX July 30, 2009 Send Subscribe/unsubscribe to KEPS at http://www.amsat.org/mailman/listinfo/keps BID: ORB09211.D TO ALL RADIO AMATEURS BT
Satellite: AO-16 Catalog number: 20439 Epoch time: 09210.90140021 Element set: 0665 Inclination: 098.2820 deg RA of node: 177.3665 deg Eccentricity: 0.0011784 Arg of perigee: 047.3222 deg Mean anomaly: 312.8962 deg Mean motion: 14.31829342 rev/day Decay rate: -5.0e-08 rev/day^2 Epoch rev: 01926 Checksum: 280
Satellite: LO-19 Catalog number: 20442 Epoch time: 09211.65008089 Element set: 579 Inclination: 098.2457 deg RA of node: 185.1758 deg Eccentricity: 0.0012572 Arg of perigee: 042.1439 deg Mean anomaly: 318.0714 deg Mean motion: 14.32064964 rev/day Decay rate: 8.9e-07 rev/day^2 Epoch rev: 1953 Checksum: 311
Satellite: AO-27 Catalog number: 22825 Epoch time: 09211.40932022 Element set: 302 Inclination: 098.4381 deg RA of node: 163.4772 deg Eccentricity: 0.0009051 Arg of perigee: 132.6184 deg Mean anomaly: 227.5758 deg Mean motion: 14.29269788 rev/day Decay rate: -2.0e-07 rev/day^2 Epoch rev: 82608 Checksum: 301
Satellite: IO-26 Catalog number: 22826 Epoch time: 09211.67188635 Element set: 31 Inclination: 098.4325 deg RA of node: 164.4613 deg Eccentricity: 0.0009688 Arg of perigee: 128.1299 deg Mean anomaly: 232.0759 deg Mean motion: 14.29522342 rev/day Decay rate: 2.0e-08 rev/day^2 Epoch rev: 82622 Checksum: 304
Satellite: GO-32 Catalog number: 25397 Epoch time: 09211.17037394 Element set: 953 Inclination: 098.3265 deg RA of node: 231.2076 deg Eccentricity: 0.0002255 Arg of perigee: 115.8723 deg Mean anomaly: 244.2693 deg Mean motion: 14.23161622 rev/day Decay rate: 2.5e-07 rev/day^2 Epoch rev: 57424 Checksum: 288
Satellite: NO-44 Catalog number: 26931 Epoch time: 09211.66109587 Element set: 228 Inclination: 067.0536 deg RA of node: 312.3429 deg Eccentricity: 0.0006192 Arg of perigee: 277.5999 deg Mean anomaly: 082.4408 deg Mean motion: 14.29561377 rev/day Decay rate: -1.62e-06 rev/day^2 Epoch rev: 40879 Checksum: 332
Satellite: SO-50 Catalog number: 27607 Epoch time: 09211.34510878 Element set: 946 Inclination: 064.5581 deg RA of node: 254.0130 deg Eccentricity: 0.0062778 Arg of perigee: 195.2647 deg Mean anomaly: 164.6541 deg Mean motion: 14.71449468 rev/day Decay rate: -1.47e-06 rev/day^2 Epoch rev: 35502 Checksum: 316
Satellite: CO-55 Catalog number: 27844 Epoch time: 09211.02504854 Element set: 632 Inclination: 098.7125 deg RA of node: 219.5843 deg Eccentricity: 0.0010705 Arg of perigee: 024.2201 deg Mean anomaly: 335.9470 deg Mean motion: 14.20648648 rev/day Decay rate: 3.1e-07 rev/day^2 Epoch rev: 31534 Checksum: 280
Satellite: CO-57 Catalog number: 27848 Epoch time: 09211.00857095 Element set: 581 Inclination: 098.7149 deg RA of node: 218.6305 deg Eccentricity: 0.0010492 Arg of perigee: 028.4049 deg Mean anomaly: 331.7701 deg Mean motion: 14.20449436 rev/day Decay rate: 6.0e-08 rev/day^2 Epoch rev: 31530 Checksum: 297
Satellite: AO-51 Catalog number: 28375 Epoch time: 09210.95639064 Element set: 0450 Inclination: 098.0518 deg RA of node: 218.0655 deg Eccentricity: 0.0084924 Arg of perigee: 355.9726 deg Mean anomaly: 004.0770 deg Mean motion: 14.40647949 rev/day Decay rate: -6.0e-08 rev/day^2 Epoch rev: 26711 Checksum: 318
Satellite: CO-56 Catalog number: 28941 Epoch time: 09211.52668876 Element set: 301 Inclination: 098.1384 deg RA of node: 034.3091 deg Eccentricity: 0.0069368 Arg of perigee: 327.1941 deg Mean anomaly: 032.5020 deg Mean motion: 15.90128562 rev/day Decay rate: 5.2688e-04 rev/day^2 Epoch rev: 19412 Checksum: 317
Satellite: GENESAT1 Catalog number: 29655 Epoch time: 09210.58838663 Element set: 769 Inclination: 040.0233 deg RA of node: 277.4778 deg Eccentricity: 0.0001319 Arg of perigee: 072.6060 deg Mean anomaly: 287.4900 deg Mean motion: 15.66421958 rev/day Decay rate: 8.199e-05 rev/day^2 Epoch rev: 14912 Checksum: 327
Satellite: CP3 Catalog number: 31129 Epoch time: 09211.65109621 Element set: 96 Inclination: 097.9855 deg RA of node: 262.6429 deg Eccentricity: 0.0103241 Arg of perigee: 149.9247 deg Mean anomaly: 210.7915 deg Mean motion: 14.52150541 rev/day Decay rate: 5.0e-08 rev/day^2 Epoch rev: 12119 Checksum: 281
Satellite: CO-65 Catalog number: 32785 Epoch time: 09211.89117734 Element set: 432 Inclination: 097.9426 deg RA of node: 275.4919 deg Eccentricity: 0.0013924 Arg of perigee: 248.2442 deg Mean anomaly: 111.7281 deg Mean motion: 14.81504700 rev/day Decay rate: 2.76e-06 rev/day^2 Epoch rev: 6791 Checksum: 316
Satellite: KKS-1 Catalog number: 33493 Epoch time: 09211.82143132 Element set: 614 Inclination: 098.0593 deg RA of node: 324.2286 deg Eccentricity: 0.0021537 Arg of perigee: 100.0689 deg Mean anomaly: 260.2965 deg Mean motion: 14.80706561 rev/day Decay rate: 2.37e-06 rev/day^2 Epoch rev: 2792 Checksum: 284
Satellite: SOHLA-1 Catalog number: 33496 Epoch time: 09211.76262439 Element set: 578 Inclination: 098.0407 deg RA of node: 320.3978 deg Eccentricity: 0.0007291 Arg of perigee: 135.6001 deg Mean anomaly: 224.5795 deg Mean motion: 14.69441804 rev/day Decay rate: 4.7e-07 rev/day^2 Epoch rev: 2767 Checksum: 312
/EX SB KEPS @ AMSAT $ORB09211.W Orbital Elements 09211.WEATHER
HR AMSAT ORBITAL ELEMENTS FOR WEATHER SATELLITES FROM WA5QGD FORT WORTH,TX July 30, 2009 Send Subscribe/unsubscribe to KEPS at http://www.amsat.org/mailman/listinfo/keps BID: ORB09211.W TO ALL RADIO AMATEURS BT
Satellite: NOAA-10 Catalog number: 16969 Epoch time: 09210.63641460 Element set: 0706 Inclination: 098.6899 deg RA of node: 237.0504 deg Eccentricity: 0.0013244 Arg of perigee: 073.8561 deg Mean anomaly: 286.4060 deg Mean motion: 14.27390708 rev/day Decay rate: -9.0e-07 rev/day^2 Epoch rev: 18956 Checksum: 318
Satellite: NOAA-11 Catalog number: 19531 Epoch time: 09210.70768086 Element set: 0723 Inclination: 098.7830 deg RA of node: 300.0050 deg Eccentricity: 0.0011528 Arg of perigee: 351.8718 deg Mean anomaly: 008.2263 deg Mean motion: 14.14900210 rev/day Decay rate: 2.5e-07 rev/day^2 Epoch rev: 07553 Checksum: 261
Satellite: NOAA-12 Catalog number: 21263 Epoch time: 09210.99120427 Element set: 0228 Inclination: 098.7722 deg RA of node: 219.0703 deg Eccentricity: 0.0013204 Arg of perigee: 026.3127 deg Mean anomaly: 333.8722 deg Mean motion: 14.25587055 rev/day Decay rate: 2.3e-07 rev/day^2 Epoch rev: 94649 Checksum: 281
Satellite: MET-3/5 Catalog number: 21655 Epoch time: 09210.91987555 Element set: 0639 Inclination: 082.5579 deg RA of node: 176.3102 deg Eccentricity: 0.0015159 Arg of perigee: 075.0821 deg Mean anomaly: 285.1978 deg Mean motion: 13.17021138 rev/day Decay rate: 5.1e-07 rev/day^2 Epoch rev: 86325 Checksum: 314
Satellite: MET-2/21 Catalog number: 22782 Epoch time: 09211.85682951 Element set: 524 Inclination: 082.5497 deg RA of node: 147.3739 deg Eccentricity: 0.0021097 Arg of perigee: 221.7657 deg Mean anomaly: 138.1894 deg Mean motion: 13.83638647 rev/day Decay rate: 1.14e-06 rev/day^2 Epoch rev: 80364 Checksum: 332
Satellite: OKEAN-4 Catalog number: 23317 Epoch time: 09211.69549868 Element set: 976 Inclination: 082.5419 deg RA of node: 293.8878 deg Eccentricity: 0.0020853 Arg of perigee: 217.8195 deg Mean anomaly: 142.1558 deg Mean motion: 14.82711327 rev/day Decay rate: 1.65e-06 rev/day^2 Epoch rev: 79881 Checksum: 352
Satellite: NOAA-14 Catalog number: 23455 Epoch time: 09210.77576440 Element set: 0707 Inclination: 098.9058 deg RA of node: 288.3033 deg Eccentricity: 0.0010374 Arg of perigee: 073.2942 deg Mean anomaly: 286.9367 deg Mean motion: 14.13766918 rev/day Decay rate: 4.3e-07 rev/day^2 Epoch rev: 75194 Checksum: 329
Satellite: NOAA-15 Catalog number: 25338 Epoch time: 09210.68047171 Element set: 0023 Inclination: 098.5856 deg RA of node: 198.9605 deg Eccentricity: 0.0009623 Arg of perigee: 297.4933 deg Mean anomaly: 062.5239 deg Mean motion: 14.24775315 rev/day Decay rate: -5.0e-07 rev/day^2 Epoch rev: 58282 Checksum: 322
